2023/05/02 00:00:00, 5.2, 6.3
2023/05/02 00:10:00, 6.5, 6.0
2023/05/02 00:20:00, 7.0, 5.7
2023/05/02 00:30:00, 8.6, 5.6
2023/05/02 00:40:00,10.3, 5.3
2023/05/02 00:50:00, 4.9, 6.5
2023/05/02 01:00:00, 5.8, 6.1
2023/05/02 01:10:00, 8.2, 5.8
2023/05/02 01:20:00, 8.5, 6.3
2023/05/02 01:30:00,---, 6.1
2023/05/02 01:40:00,35.9, 5.9
2023/05/02 01:50:00,35.8, 5.7
2023/05/02 02:00:00,35.7, 5.3
2023/05/02 02:10:00,35.7, 5.3
2023/05/02 02:20:00,35.6, 5.0
2023/05/02 02:30:00,35.3, 5.0
2023/05/02 02:40:00,35.7, 5.0
2023/05/02 02:50:00,34.7, 4.6
2023/05/02 03:00:00,33.0, 5.2
2023/05/02 03:10:00,23.0, 5.3
2023/05/02 03:20:00,16.7, 4.9
2023/05/02 03:30:00, 3.4, 5.3
2023/05/02 03:40:00, 4.8, 5.5
2023/05/02 03:50:00, 2.7, 5.7
2023/05/02 04:00:00, 2.6, 5.5
2023/05/02 04:10:00, 4.1, 5.7
2023/05/02 04:20:00, 4.3, 5.2
2023/05/02 04:30:00, 3.1, 5.3
2023/05/02 04:40:00, 2.8, 5.6
2023/05/02 04:50:00, 3.6, 5.0
2023/05/02 05:00:00, 4.5, 5.0
2023/05/02 05:10:00, 5.1, 5.0
2023/05/02 05:20:00, 8.5, 4.9
2023/05/02 05:30:00,23.3, 4.9
2023/05/02 05:40:00,29.0, 5.0
2023/05/02 05:50:00,32.8, 6.0
2023/05/02 06:00:00,34.6, 6.0
2023/05/02 06:10:00,35.0, 6.3
2023/05/02 06:20:00,35.0, 6.6
2023/05/02 06:30:00,35.1, 7.1
2023/05/02 06:40:00,35.1, 7.9
2023/05/02 06:50:00,35.2, 8.3
2023/05/02 07:00:00,34.2, 9.2
2023/05/02 07:10:00,30.4,10.5
2023/05/02 07:20:00,26.4,10.9
2023/05/02 07:30:00,13.5,11.8
2023/05/02 07:40:00, 2.9,13.2
2023/05/02 07:50:00, 3.4,15.5
2023/05/02 08:00:00, 0.8,15.2
2023/05/02 08:10:00, 0.6,16.8
2023/05/02 08:20:00, 1.6,17.5
2023/05/02 08:30:00, 2.1,18.8
2023/05/02 08:40:00, 4.6,20.2
2023/05/02 08:50:00,12.2,19.3
2023/05/02 09:00:00,11.5,19.7
2023/05/02 09:10:00,---,20.1
2023/05/02 09:20:00,35.3,20.6
2023/05/02 09:30:00,33.2,20.2
2023/05/02 09:40:00,29.6,19.8
2023/05/02 09:50:00,24.8,20.3
2023/05/02 10:00:00,28.7,20.8
2023/05/02 10:10:00,34.0,21.3
2023/05/02 10:20:00,35.4,21.2
2023/05/02 10:30:00,35.4,20.4
2023/05/02 10:40:00,35.4,21.4
2023/05/02 10:50:00,35.0,20.4
2023/05/02 11:00:00,34.2,21.1
2023/05/02 11:10:00, 9.9,21.2
2023/05/02 11:20:00, 2.5,21.4
2023/05/02 11:30:00, 3.4,21.5
2023/05/02 11:40:00, 8.4,21.5
2023/05/02 11:50:00,17.2,21.5
2023/05/02 12:00:00,15.8,21.4
2023/05/02 12:10:00,35.9,21.1
2023/05/02 12:20:00,29.9,21.2
2023/05/02 12:30:00,21.6,21.2
2023/05/02 12:40:00,25.4,21.4
2023/05/02 12:50:00,25.8,21.0
2023/05/02 13:00:00,29.3,21.2
2023/05/02 13:10:00,27.4,21.4
2023/05/02 13:20:00,26.9,21.3
2023/05/02 13:30:00,25.5,21.9
2023/05/02 13:40:00,24.4,22.3
2023/05/02 13:50:00,24.7,21.9
2023/05/02 14:00:00,25.2,22.3
2023/05/02 14:10:00,23.2,22.1
2023/05/02 14:20:00,25.0,22.5
2023/05/02 14:30:00,30.9,22.2
2023/05/02 14:40:00,30.4,22.0
2023/05/02 14:50:00,28.5,22.1
2023/05/02 15:00:00,28.7,22.7
2023/05/02 15:10:00,27.5,22.4
2023/05/02 15:20:00,27.7,22.7
2023/05/02 15:30:00,25.9,22.4
2023/05/02 15:40:00,24.1,22.7
2023/05/02 15:50:00,21.5,21.5
2023/05/02 16:00:00,24.9,21.6
2023/05/02 16:10:00,24.5,22.4
2023/05/02 16:20:00,26.0,22.5
2023/05/02 16:30:00,27.4,22.4
2023/05/02 16:40:00,24.7,22.5
2023/05/02 16:50:00,23.9,21.7
2023/05/02 17:00:00,23.8,22.1
2023/05/02 17:10:00,24.3,22.2
2023/05/02 17:20:00,24.4,21.5
2023/05/02 17:30:00,24.9,20.9
2023/05/02 17:40:00,29.3,20.1
2023/05/02 17:50:00,31.4,19.5
2023/05/02 18:00:00,33.4,19.8
2023/05/02 18:10:00,32.5,18.9
2023/05/02 18:20:00,30.0,17.1
2023/05/02 18:30:00,27.1,15.7
2023/05/02 18:40:00,26.2,14.8
2023/05/02 18:50:00,24.8,14.1
2023/05/02 19:00:00,23.3,12.1
2023/05/02 19:10:00,22.4,11.8
2023/05/02 19:20:00,21.7,11.9
2023/05/02 19:30:00,11.5,11.8
2023/05/02 19:40:00, 7.1,11.3
2023/05/02 19:50:00, 4.1,11.4
2023/05/02 20:00:00, 2.9,11.0
2023/05/02 20:10:00, 3.7,10.6
2023/05/02 20:20:00, 5.3,10.6
2023/05/02 20:30:00, 6.3,10.9
2023/05/02 20:40:00, 8.0,11.3
2023/05/02 20:50:00,13.9,10.7
2023/05/02 21:00:00,23.9,10.9
2023/05/02 21:10:00,30.9,10.5
2023/05/02 21:20:00,35.3,10.1
2023/05/02 21:30:00,36.3, 9.6
2023/05/02 21:40:00, 0.0, 9.4
2023/05/02 21:50:00,---, 9.1
2023/05/02 22:00:00,92.3, 8.8
2023/05/02 22:10:00,36.9, 8.9
2023/05/02 22:20:00,37.2, 8.5
2023/05/02 22:30:00,37.5, 8.2
2023/05/02 22:40:00,37.8, 8.8
2023/05/02 22:50:00,37.9, 8.3
2023/05/02 23:00:00,38.0, 8.2
2023/05/02 23:10:00,38.1, 7.9
2023/05/02 23:20:00,38.0, 8.5
2023/05/02 23:30:00,38.1, 8.2
2023/05/02 23:40:00,38.0, 8.1
2023/05/02 23:50:00,38.1, 8.4
